GW4835 Weather Reports


Display with metric or nautical units.
time (UTC)temp
F
wind
direction
speed
MPH
gust
MPH
rain 1hr
in
rain 24hr
in
rain mn
in
humidity
%
barometer
mb
20260508205645 67 30 2.0 2.0 0.00 0.00 0.00 50 1013.0
20260508205141 67 29 1.0 1.0 0.00 0.00 0.00 49 1013.3
20260508204638 67 27 1.0 1.0 0.00 0.00 0.00 46 1013.3
20260508204134 67 26 1.0 2.0 0.00 0.00 0.00 50 1013.3
20260508203630 67 77 2.0 3.0 0.00 0.00 0.00 46 1013.3
20260508203126 68 6 1.0 3.0 0.00 0.00 0.00 51 1013.5
20260508202622 68 15 1.0 2.0 0.00 0.00 0.00 46 1013.3
20260508202120 67 33 1.0 1.0 0.00 0.00 0.00 46 1013.4
20260508201617 67 22 0.0 1.0 0.00 0.00 0.00 51 1013.4
20260508201113 67 28 1.0 1.0 0.00 0.00 0.00 47 1013.3
20260508200610 67 355 1.0 2.0 0.00 0.00 0.00 45 1013.4
20260508200106 67 30 1.0 2.0 0.00 0.00 0.00 47 1013.5
20260508195603 67 5 2.0 3.0 0.00 0.00 0.00 46 1013.6
20260508195059 67 18 1.0 2.0 0.00 0.00 0.00 48 1013.6
20260508194556 67 122 2.0 3.0 0.00 0.00 0.00 44 1013.8
20260508194053 68 30 1.0 3.0 0.00 0.00 0.00 48 1013.6
20260508193549 68 40 1.0 3.0 0.00 0.00 0.00 44 1013.7
20260508193046 68 109 3.0 4.0 0.00 0.00 0.00 42 1013.9
20260508192543 69 100 3.0 4.0 0.00 0.00 0.00 41 1014.1
20260508192041 70 118 2.0 4.0 0.00 0.00 0.00 42 1013.9
20260508191537 68 1 1.0 3.0 0.00 0.00 0.00 45 1013.9
20260508191034 69 59 2.0 2.0 0.00 0.00 0.00 46 1013.9
20260508190531 69 36 1.0 2.0 0.00 0.00 0.00 45 1014.2
20260508190027 69 37 2.0 2.0 0.00 0.00 0.00 47 1014.4
20260508185525 69 37 0.0 2.0 0.00 0.00 0.00 45 1014.4
20260508185022 69 73 1.0 2.0 0.00 0.00 0.00 43 1014.6
20260508184520 68 63 2.0 2.0 0.00 0.00 0.00 47 1014.5
20260508184016 68 69 2.0 3.0 0.00 0.00 0.00 47 1014.5
20260508183513 70 67 2.0 7.0 0.00 0.00 0.00 43 1014.6
20260508183008 70 61 2.0 6.0 0.00 0.00 0.00 43 1014.7
20260508182505 69 287 4.0 6.0 0.00 0.00 0.00 55 1015.1
20260508182001 69 21 1.0 2.0 0.00 0.00 0.00 45 1014.9
20260508181457 68 128 3.0 4.0 0.00 0.00 0.00 45 1015.1
20260508180955 68 68 3.0 4.0 0.00 0.00 0.00 44 1015.2
20260508180452 69 66 2.0 6.0 0.00 0.00 0.00 45 1015.1
20260508175948 69 15 1.0 3.0 0.00 0.00 0.00 43 1015.2
20260508175444 68 33 1.0 2.0 0.00 0.00 0.00 47 1015.3
20260508174942 67 48 2.0 6.0 0.00 0.00 0.00 47 1015.2
20260508174439 66 311 2.0 6.0 0.00 0.00 0.00 46 1015.6
20260508173936 66 75 2.0 3.0 0.00 0.00 0.00 50 1015.7
20260508173433 66 356 2.0 2.0 0.00 0.00 0.00 49 1015.7
20260508172929 67 163 3.0 4.0 0.00 0.00 0.00 48 1015.9
20260508172427 67 16 1.0 4.0 0.00 0.00 0.00 49 1015.9
20260508171923 67 32 2.0 3.0 0.00 0.00 0.00 48 1016.0
20260508171419 67 44 1.0 2.0 0.00 0.00 0.00 48 1016.0
20260508170916 69 31 1.0 2.0 0.00 0.00 0.00 49 1016.3
20260508170413 69 37 2.0 6.0 0.00 0.00 0.00 49 1015.9
20260508165910 68 50 2.0 4.0 0.00 0.00 0.00 49 1016.3
20260508165408 69 174 4.0 7.0 0.00 0.00 0.00 46 1016.3
20260508164903 69 39 2.0 4.0 0.00 0.00 0.00 49 1016.4
20260508164401 68 59 2.0 7.0 0.00 0.00 0.00 50 1016.6
20260508163858 68 49 2.0 8.0 0.00 0.00 0.00 48 1016.7
20260508163356 67 72 4.0 6.0 0.00 0.00 0.00 49 1016.3
20260508162851 67 14 1.0 6.0 0.00 0.00 0.00 47 1016.6
20260508162349 68 65 3.0 4.0 0.00 0.00 0.00 48 1016.5
20260508161845 68 44 2.0 2.0 0.00 0.00 0.00 47 1016.6
20260508161343 68 85 3.0 4.0 0.00 0.00 0.00 48 1016.7
20260508160840 68 26 1.0 4.0 0.00 0.00 0.00 50 1016.9
20260508160338 67 58 2.0 4.0 0.00 0.00 0.00 51 1017.0
20260508155835 67 333 2.0 4.0 0.00 0.00 0.00 51 1017.0
20260508155332 67 41 1.0 3.0 0.00 0.00 0.00 53 1017.0
20260508154829 67 181 3.0 3.0 0.00 0.00 0.00 50 1017.0
20260508154327 67 333 2.0 6.0 0.00 0.00 0.00 52 1017.0
20260508153823 66 59 2.0 3.0 0.00 0.00 0.00 49 1017.1
20260508153321 66 80 3.0 6.0 0.00 0.00 0.00 48 1017.2
20260508152816 66 350 3.0 3.0 0.00 0.00 0.00 54 1017.0
20260508152313 65 29 2.0 7.0 0.00 0.00 0.00 50 1017.3
20260508151809 67 95 3.0 4.0 0.00 0.00 0.00 55 1017.6
20260508151306 66 29 1.0 2.0 0.00 0.00 0.00 51 1017.3
20260508150802 64 144 2.0 3.0 0.00 0.00 0.00 51 1017.2
20260508150259 64 160 3.0 6.0 0.00 0.00 0.00 51 1017.5
20260508145756 64 123 3.0 4.0 0.00 0.00 0.00 52 1017.5
20260508145251 64 55 2.0 4.0 0.00 0.00 0.00 52 1017.4
20260508144748 64 43 1.0 3.0 0.00 0.00 0.00 51 1017.4
20260508144246 64 7 1.0 2.0 0.00 0.00 0.00 55 1017.4
20260508143744 63 29 1.0 2.0 0.00 0.00 0.00 50 1017.7
20260508143241 64 37 1.0 4.0 0.00 0.00 0.00 49 1017.4
20260508142737 63 79 1.0 2.0 0.00 0.00 0.00 54 1017.4
20260508142234 63 38 2.0 3.0 0.00 0.00 0.00 55 1017.6
20260508141730 62 28 1.0 2.0 0.00 0.00 0.00 56 1017.7
20260508141228 62 10 3.0 4.0 0.00 0.00 0.00 53 1017.6
20260508140725 62 83 2.0 4.0 0.00 0.00 0.00 53 1018.0
20260508140222 61 73 3.0 3.0 0.00 0.00 0.00 53 1017.7
20260508135718 60 42 1.0 6.0 0.00 0.00 0.00 55 1017.8
20260508135213 59 80 2.0 2.0 0.00 0.00 0.00 55 1017.8
20260508134709 59 25 1.0 2.0 0.00 0.00 0.00 60 1017.8
20260508134206 59 41 1.0 2.0 0.00 0.00 0.00 61 1017.9
20260508133703 58 33 1.0 1.0 0.00 0.00 0.00 62 1017.9
20260508133201 56 55 2.0 2.0 0.00 0.00 0.00 66 1018.0
20260508132658 55 37 1.0 1.0 0.00 0.00 0.00 66 1018.0
20260508132155 55 38 1.0 2.0 0.00 0.00 0.00 67 1018.0
20260508131651 55 50 1.0 2.0 0.00 0.00 0.00 65 1017.8
20260508131147 56 45 1.0 2.0 0.00 0.00 0.00 65 1017.9
20260508130644 55 38 1.0 3.0 0.00 0.00 0.00 66 1017.9
20260508130141 54 36 1.0 1.0 0.00 0.00 0.00 68 1018.1
20260508125637 55 41 1.0 2.0 0.00 0.00 0.00 69 1017.8
20260508125134 54 38 1.0 1.0 0.00 0.00 0.00 68 1018.1
20260508124632 53 32 1.0 2.0 0.00 0.00 0.00 68 1018.1
20260508124129 53 41 1.0 1.0 0.00 0.00 0.00 70 1018.0
20260508123627 52 37 1.0 2.0 0.00 0.00 0.00 69 1017.8
20260508123124 52 41 1.0 2.0 0.00 0.00 0.00 71 1017.9
20260508122620 51 37 1.0 2.0 0.00 0.00 0.00 71 1018.0
20260508122118 51 42 1.0 2.0 0.00 0.00 0.00 73 1017.9
20260508121616 51 39 1.0 1.0 0.00 0.00 0.00 72 1017.8
20260508121114 51 42 1.0 2.0 0.00 0.00 0.00 73 1017.8
20260508120611 51 31 0.0 2.0 0.00 0.00 0.00 73 1018.0
20260508120109 51 30 0.0 1.0 0.00 0.00 0.00 74 1017.7
20260508115606 49 30 0.0 1.0 0.00 0.00 0.00 75 1017.8
20260508115103 48 32 1.0 2.0 0.00 0.00 0.00 76 1017.7
20260508114600 48 19 1.0 1.0 0.00 0.00 0.00 78 1017.8
20260508114055 47 21 0.0 1.0 0.00 0.00 0.00 78 1017.7
20260508113553 48 29 0.0 1.0 0.00 0.00 0.00 78 1017.6
20260508113051 48 34 1.0 1.0 0.00 0.00 0.00 78 1017.5
20260508112547 48 20 0.0 1.0 0.00 0.00 0.00 78 1017.5
20260508112044 47 13 0.0 1.0 0.00 0.00 0.00 79 1017.6
20260508111541 47 28 0.0 2.0 0.00 0.00 0.00 78 1017.5
20260508111038 47 30 1.0 1.0 0.00 0.00 0.00 79 1017.3
20260508110536 47 44 1.0 2.0 0.00 0.00 0.00 81 1017.2
20260508110032 47 33 1.0 1.0 0.00 0.00 0.00 82 1017.4
20260508105527 46 42 1.0 2.0 0.00 0.00 0.00 81 1017.2
20260508105025 46 23 1.0 1.0 0.00 0.00 0.00 85 1017.3
20260508104523 45 16 0.0 1.0 0.00 0.00 0.00 87 1017.3
20260508104018 44 12 0.0 0.0 0.00 0.00 0.00 89 1017.5
20260508103516 44 12 0.0 0.0 0.00 0.00 0.00 89 1017.4
20260508103013 43 12 0.0 0.0 0.00 0.00 0.00 90 1017.3
20260508102511 43 12 0.0 0.0 0.00 0.00 0.00 91 1017.3
20260508102008 43 12 0.0 0.0 0.00 0.00 0.00 91 1017.3
20260508101505 44 12 0.0 0.0 0.00 0.00 0.00 90 1017.4
20260508101002 44 11 0.0 1.0 0.00 0.00 0.00 89 1017.3
20260508100501 44 13 0.0 0.0 0.00 0.00 0.00 87 1017.3
20260508095956 44 12 0.0 0.0 0.00 0.00 0.00 88 1017.4
20260508095454 44 12 0.0 0.0 0.00 0.00 0.00 89 1017.4
20260508094951 43 12 0.0 0.0 0.00 0.00 0.00 90 1017.4
20260508094448 43 12 0.0 0.0 0.00 0.00 0.00 91 1017.3
20260508093944 43 11 0.0 0.0 0.00 0.00 0.00 90 1017.5
20260508093442 43 11 0.0 0.0 0.00 0.00 0.00 90 1017.5
20260508092940 44 11 1.0 1.0 0.00 0.00 0.00 89 1017.6
20260508092437 44 19 0.0 0.0 0.00 0.00 0.00 87 1017.3
20260508091936 45 20 0.0 0.0 0.00 0.00 0.00 85 1017.1
20260508091432 45 20 0.0 0.0 0.00 0.00 0.00 85 1017.3
20260508090929 45 29 0.0 1.0 0.00 0.00 0.00 83 1017.4
20260508090428 44 24 0.0 1.0 0.00 0.00 0.00 86 1017.3
20260508085923 43 34 1.0 1.0 0.00 0.00 0.00 90 1017.3
20260508085420 42 26 1.0 1.0 0.00 0.00 0.00 94 1017.5
20260508084917 41 23 0.0 0.0 0.00 0.00 0.00 92 1017.5
20260508084413 41 23 0.0 0.0 0.00 0.00 0.00 92 1017.4
20260508083911 40 23 0.0 0.0 0.00 0.00 0.00 92 1017.4
20260508083409 40 23 0.0 0.0 0.00 0.00 0.00 92 1017.5
20260508082908 40 23 0.0 0.0 0.00 0.00 0.00 92 1017.6
20260508082406 40 23 0.0 0.0 0.00 0.00 0.00 92 1017.2
20260508081903 40 23 0.0 0.0 0.00 0.00 0.00 92 1017.3
20260508081400 40 23 0.0 0.0 0.00 0.00 0.00 91 1017.1
20260508080856 40 23 0.0 0.0 0.00 0.00 0.00 91 1017.2
20260508080355 41 23 0.0 0.0 0.00 0.00 0.00 90 1017.2
20260508075851 41 23 0.0 0.0 0.00 0.00 0.00 89 1017.3
20260508075348 41 24 0.0 0.0 0.00 0.00 0.00 88 1017.3
20260508074846 42 24 0.0 0.0 0.00 0.00 0.00 90 1017.3
20260508074343 42 24 0.0 0.0 0.00 0.00 0.00 91 1017.2
20260508073840 42 24 0.0 1.0 0.00 0.00 0.00 92 1017.2
20260508073338 42 23 0.0 0.0 0.00 0.00 0.00 93 1017.3
20260508072834 40 23 0.0 0.0 0.00 0.00 0.00 92 1017.3
20260508072330 40 23 0.0 0.0 0.00 0.00 0.00 91 1017.4
20260508071828 41 23 0.0 0.0 0.00 0.00 0.00 90 1017.3
20260508071326 41 23 0.0 0.0 0.00 0.00 0.00 90 1017.2
20260508070823 41 23 0.0 0.0 0.00 0.00 0.00 89 1017.3
20260508070322 41 23 0.0 0.0 0.00 0.00 0.00 88 1017.4
20260508065819 41 23 0.0 0.0 0.00 0.00 0.00 88 1017.4
20260508065317 41 23 0.0 0.0 0.00 0.00 0.00 88 1017.4
20260508064814 41 23 0.0 0.0 0.00 0.00 0.00 87 1017.6
20260508064312 41 23 0.0 0.0 0.00 0.00 0.00 87 1017.6
20260508063809 42 23 0.0 0.0 0.00 0.00 0.00 86 1017.8
20260508063307 42 23 0.0 0.0 0.00 0.00 0.00 85 1017.8
20260508062804 42 23 0.0 0.0 0.00 0.00 0.00 84 1017.8
20260508062305 42 23 0.0 0.0 0.00 0.00 0.00 83 1017.7
20260508061758 42 23 0.0 0.0 0.00 0.00 0.00 83 1018.0
20260508061255 42 23 0.0 0.0 0.00 0.00 0.00 83 1018.0
20260508060752 43 23 0.0 0.0 0.00 0.00 0.00 82 1017.9
20260508060250 43 23 0.0 0.0 0.00 0.00 0.00 83 1017.9
20260508055745 43 23 0.0 0.0 0.00 0.00 0.00 82 1017.9
20260508055242 43 23 0.0 0.0 0.00 0.00 0.00 82 1017.9
20260508054739 43 23 0.0 0.0 0.00 0.00 0.00 81 1018.0
20260508054237 44 23 0.0 0.0 0.00 0.00 0.00 81 1017.9
20260508053734 44 23 0.0 0.0 0.00 0.00 0.00 81 1018.0
20260508053231 44 23 0.0 0.0 0.00 0.00 0.00 81 1017.8
20260508052728 45 23 0.0 0.0 0.00 0.00 0.00 80 1017.8
20260508052225 45 23 0.0 0.0 0.00 0.00 0.00 81 1017.8
20260508051721 45 23 0.0 1.0 0.00 0.00 0.00 82 1017.9
20260508051217 45 23 0.0 0.0 0.00 0.00 0.00 81 1017.8
20260508050714 45 23 0.0 0.0 0.00 0.00 0.00 79 1018.0
20260508050212 46 23 0.0 0.0 0.00 0.00 0.00 78 1017.9
20260508045711 47 24 0.0 1.0 0.00 0.00 0.00 78 1017.9
20260508045210 48 25 0.0 1.0 0.00 0.00 0.00 76 1018.0
20260508044707 48 29 1.0 1.0 0.00 0.00 0.00 78 1018.0
20260508044203 48 29 0.0 1.0 0.00 0.00 0.00 77 1017.7
20260508043659 48 29 0.0 1.0 0.00 0.00 0.00 76 1017.7
20260508043158 48 30 0.0 1.0 0.00 0.00 0.00 76 1017.9
20260508042654 48 30 1.0 1.0 0.00 0.00 0.00 75 1017.8
20260508042151 48 24 0.0 0.0 0.00 0.00 0.00 74 1017.8
20260508041647 49 33 0.0 1.0 0.00 0.00 0.00 71 1017.6
20260508041144 49 33 0.0 1.0 0.00 0.00 0.00 71 1017.8
20260508040641 49 32 1.0 1.0 0.00 0.00 0.00 76 1017.6
20260508040138 49 32 1.0 1.0 0.00 0.00 0.00 71 1017.7
20260508035636 49 38 1.0 2.0 0.00 0.00 0.00 76 1017.5
20260508035133 49 31 0.0 1.0 0.00 0.00 0.00 75 1017.7
20260508034630 49 31 0.0 1.0 0.00 0.00 0.00 72 1017.7
20260508034127 49 31 1.0 1.0 0.00 0.00 0.00 70 1017.6
20260508033624 49 31 1.0 1.0 0.00 0.00 0.00 77 1017.7
20260508033122 49 25 0.0 1.0 0.00 0.00 0.00 76 1017.7
20260508032618 49 24 0.0 0.0 0.00 0.00 0.00 72 1017.9
20260508032116 49 39 0.0 1.0 0.00 0.00 0.00 76 1017.8
20260508031613 50 40 0.0 1.0 0.00 0.00 0.00 72 1017.6
20260508031109 50 41 1.0 1.0 0.00 0.00 0.00 69 1017.6
20260508030605 50 40 1.0 1.0 0.00 0.00 0.00 72 1017.6
20260508030104 50 35 1.0 1.0 0.00 0.00 0.00 69 1017.6
20260508025559 49 33 0.0 1.0 0.00 0.00 0.00 68 1017.9
20260508025057 49 34 0.0 1.0 0.00 0.00 0.00 73 1017.8
20260508024552 49 24 0.0 1.0 0.00 0.00 0.00 75 1017.9
20260508024050 49 24 0.0 0.0 0.00 0.00 0.00 75 1017.8
20260508023546 49 24 1.0 1.0 0.00 0.00 0.00 73 1017.8
20260508023044 49 24 0.0 1.0 0.00 0.00 0.00 76 1017.7
20260508022539 49 24 0.0 1.0 0.00 0.00 0.00 76 1017.5
20260508022037 49 24 0.0 1.0 0.00 0.00 0.00 74 1017.4
20260508021532 50 24 0.0 0.0 0.00 0.00 0.00 75 1017.7
20260508021028 50 24 0.0 1.0 0.00 0.00 0.00 72 1017.6
20260508020526 50 24 0.0 1.0 0.00 0.00 0.00 71 1017.4
20260508020024 50 24 1.0 1.0 0.00 0.00 0.00 70 1017.4
20260508015521 50 23 0.0 1.0 0.00 0.00 0.00 73 1017.5
20260508015018 50 23 0.0 1.0 0.00 0.00 0.00 73 1017.6
20260508014514 50 23 0.0 1.0 0.00 0.00 0.00 76 1017.6
20260508014010 50 23 0.0 0.0 0.00 0.00 0.00 71 1017.6
20260508013506 50 23 0.0 0.0 0.00 0.00 0.00 68 1017.7
20260508013004 50 23 0.0 1.0 0.00 0.00 0.00 73 1017.6
20260508012501 50 23 0.0 0.0 0.00 0.00 0.00 71 1017.5
20260508011958 50 23 0.0 0.0 0.00 0.00 0.00 70 1017.6
20260508011456 50 23 0.0 0.0 0.00 0.00 0.00 70 1017.4
20260508010953 50 23 0.0 0.0 0.00 0.00 0.00 69 1017.6
20260508010450 51 23 0.0 0.0 0.00 0.00 0.00 66 1017.3
20260508005947 51 23 0.0 0.0 0.00 0.00 0.00 68 1017.4
20260508005444 52 23 0.0 0.0 0.00 0.00 0.00 70 1017.3
20260508004940 52 23 0.0 0.0 0.00 0.00 0.00 65 1017.2
20260508004437 52 23 0.0 0.0 0.00 0.00 0.00 65 1017.6
20260508003933 53 23 0.0 0.0 0.00 0.00 0.00 64 1017.5
20260508003430 53 23 0.0 0.0 0.00 0.00 0.00 64 1017.4
20260508002928 54 23 0.0 0.0 0.00 0.00 0.00 56 1017.1
20260508002424 54 23 0.0 0.0 0.00 0.00 0.00 53 1017.3
20260508001920 55 23 0.0 0.0 0.00 0.00 0.00 51 1017.1
20260508001417 55 21 0.0 0.0 0.00 0.00 0.00 51 1017.2
20260508000913 55 24 0.0 1.0 0.00 0.00 0.00 50 1017.3
20260508000412 56 16 0.0 1.0 0.00 0.00 0.00 48 1017.1
20260507235906 56 21 0.0 0.0 0.00 0.00 0.00 47 1017.3
20260507235403 56 12 0.0 0.0 0.00 0.00 0.00 47 1017.0
20260507234900 56 0 2.0 4.0 0.00 0.00 0.00 46 1017.0
20260507234359 57 12 0.0 1.0 0.00 0.00 0.00 47 1017.1
20260507233853 57 5 0.0 1.0 0.00 0.00 0.00 51 1017.1
20260507233351 57 26 0.0 2.0 0.00 0.00 0.00 54 1017.0
20260507232849 57 11 1.0 2.0 0.00 0.00 0.00 51 1016.9
20260507232345 57 10 0.0 1.0 0.00 0.00 0.00 48 1017.0
20260507231843 58 29 0.0 1.0 0.00 0.00 0.00 49 1017.1
20260507231339 58 19 0.0 1.0 0.00 0.00 0.00 46 1016.9
20260507230835 58 1 0.0 3.0 0.00 0.00 0.00 45 1017.1
20260507230333 58 354 0.0 2.0 0.00 0.00 0.00 45 1017.0
20260507225832 58 12 0.0 2.0 0.00 0.00 0.00 48 1017.1
20260507225329 58 23 1.0 2.0 0.00 0.00 0.00 41 1016.9
20260507224825 58 14 0.0 0.0 0.00 0.00 0.00 42 1017.1
20260507224322 58 1 2.0 2.0 0.00 0.00 0.00 42 1016.9
20260507223818 58 322 4.0 7.0 0.00 0.00 0.00 42 1017.0
20260507223314 58 346 2.0 3.0 0.00 0.00 0.00 46 1017.0
20260507222812 58 4 0.0 2.0 0.00 0.00 0.00 44 1017.2
20260507222308 58 4 0.0 1.0 0.00 0.00 0.00 48 1017.2
20260507221805 59 326 4.0 7.0 0.00 0.00 0.00 40 1017.1
20260507221301 60 358 1.0 3.0 0.00 0.00 0.00 43 1017.0
20260507220757 60 10 1.0 2.0 0.00 0.00 0.00 48 1017.1
20260507220256 60 8 1.0 3.0 0.00 0.00 0.00 46 1017.1
20260507215752 60 342 2.0 3.0 0.00 0.00 0.00 43 1017.1
20260507215250 60 25 1.0 4.0 0.00 0.00 0.00 47 1017.4
20260507214746 60 352 3.0 6.0 0.00 0.00 0.00 44 1017.4
20260507214244 60 358 0.0 3.0 0.00 0.00 0.00 44 1017.2
20260507213738 61 356 1.0 6.0 0.00 0.00 0.00 46 1017.1
20260507213236 61 24 2.0 7.0 0.00 0.00 0.00 44 1017.2
20260507212732 60 357 1.0 7.0 0.00 0.00 0.00 47 1017.3
20260507212229 61 0 0.0 2.0 0.00 0.00 0.00 45 1017.4
20260507211726 60 347 2.0 6.0 0.00 0.00 0.00 44 1017.4
20260507211222 61 338 3.0 7.0 0.00 0.00 0.00 46 1017.1
20260507210719 60 7 1.0 4.0 0.00 0.00 0.00 46 1017.1
20260507210216 60 33 0.0 4.0 0.00 0.00 0.00 43 1017.2